This is the latest recevied weather packets stored in our database for station/object DG7FDL-7. If no packets are shown the sender has not sent any weather packets the latest 10 day(s).
| Time | Temp. | Humidity | Pressure | Rain* | Wind** | Luminosity | Snow |
|---|---|---|---|---|---|---|---|
| 1777517377 | 17.22° C | 32% | 1031 hPa | - | - | - | - |
| 1777516469 | 17.22° C | 32% | 1031 hPa | - | - | - | - |
| 1777515569 | 17.22° C | 32% | 1031 hPa | - | - | - | - |
| 1777514669 | 17.22° C | 32% | 1030.8 hPa | - | - | - | - |
| 1777513782 | 17.78° C | 32% | 1030.8 hPa | - | - | - | - |
| 1777512869 | 17.78° C | 32% | 1030.7 hPa | - | - | - | - |
| 1777511979 | 18.33° C | 31% | 1030.5 hPa | - | - | - | - |
| 1777511069 | 19.44° C | 30% | 1030.5 hPa | - | - | - | - |
| 1777510169 | 17.78° C | 32% | 1030.4 hPa | - | - | - | - |
| 1777509269 | 17.78° C | 32% | 1030.4 hPa | - | - | - | - |
| 1777508373 | 17.78° C | 32% | 1030.4 hPa | - | - | - | - |
| 1777507468 | 18.33° C | 32% | 1030.4 hPa | - | - | - | - |
| 1777506568 | 18.33° C | 32% | 1030.3 hPa | - | - | - | - |
| 1777505668 | 18.33° C | 32% | 1030.2 hPa | - | - | - | - |
| 1777504773 | 18.33° C | 32% | 1030.3 hPa | - | - | - | - |
| 1777503868 | 18.89° C | 31% | 1030.2 hPa | - | - | - | - |
| 1777502968 | 18.89° C | 31% | 1030.1 hPa | - | - | - | - |
| 1777502068 | 18.89° C | 31% | 1030.1 hPa | - | - | - | - |
| 1777501188 | 19.44° C | 31% | 1029.9 hPa | - | - | - | - |
| 1777500268 | 19.44° C | 31% | 1029.6 hPa | - | - | - | - |
| 1777499367 | 20° C | 31% | 1029.6 hPa | - | - | - | - |
| 1777498469 | 20° C | 31% | 1029.4 hPa | - | - | - | - |
| 1777497569 | 20° C | 32% | 1029.3 hPa | - | - | - | - |
| 1777496667 | 20.56° C | 33% | 1029.3 hPa | - | - | - | - |
| 1777495767 | 22.22° C | 34% | 1029.3 hPa | - | - | - | - |
* Rain since midnight (hover to see other rain measurements)
** Current wind speed in m/s (hover to see current wind gust speed)